Regional Weather Roundup
Issued by NWS State College, PA

Home | Current Version | Previous Version | Text Only | Print | Product List | Glossary Off
Versions: 1 2 3 4 5 6 7 8 9 10 11 12 13 14 15 16 17 18 19 20 21 22 23 24 25 26 27 28 29 30 31 32 33 34 35 36 37 38 39 40 41 42 43 44 45 46 47 48 49 50

000
ASUS41 KCTP 211410
RWRCTP

REGIONAL WEATHER ROUNDUP
NATIONAL WEATHER SERVICE STATE COLLEGE PA
1000 AM EDT SUN SEP 21 2014

Note: "fair" indicates few or no clouds below 12,000 feet with no
significant weather and/or obstructions to visibility.

* = STATION THAT DOES NOT REPORT PRECIPITATION /E.G. RAIN...SNOW...ETC/
    THUNDER OR FOG.

PAZ002>004-007>009-013>016-020>023-029>032-211500-
WESTERN PENNSYLVANIA

CITY           SKY/WX    TMP DP  RH WIND       PRES   REMARKS
ERIE           PTSUNNY   73  63  68 SW13G26   29.66R
MEADVILLE      CLOUDY    68  64  87 SW12G21   29.72S
FRANKLIN*      CLOUDY    64  63  94 SW14G22   29.76S
NEW CASTLE     NOT AVBL
BEAVER COUNTY  CLOUDY    70  64  83 S13G18    29.77F
BUTLER*        MOSUNNY   70  63  78 SW14G20   29.79F
PITTSBURGH INT LGT RAIN  69  64  84 SW15      29.78F
PITTSBURGH     CLOUDY    67  61  81 S10       29.80S
INDIANA*       PTSUNNY   73  63  68 SW13      29.83F
LATROBE        PTSUNNY   73  64  73 W18       29.82F
WASHINGTON CO* PTSUNNY   66  63  88 S5        29.81F
$$

PAZ004>006-010>012-017>019-024>028-033>037-041-042-045-046-049>053-211500-
CENTRAL PENNSYLVANIA

CITY           SKY/WX    TMP DP  RH WIND       PRES   REMARKS
BRADFORD       LGT RAIN  64  62  93 S7        29.77F FOG
DUBOIS         HVY RAIN  65  62  90 SW12G21   29.78F FOG
CLEARFIELD     MOSUNNY   66  62  87 S6        29.81F
JOHNSTOWN      MOSUNNY   68  59  73 SW12      29.85F
ALTOONA        SUNNY     69  60  73 S9        29.84F
STATE COLLEGE  SUNNY     68  59  73 SW6       29.83F
WILLIAMSPORT   CLOUDY    65  58  78 E8        29.82F
SELINSGROVE    MOSUNNY   69  61  75 S7        29.86F
FT INDIANTOWN  CLOUDY    63  63 100 CALM      29.89S FOG
CAPITAL CITY   CLOUDY    63  60  90 E5        29.88S FOG
HARRISBURG     CLOUDY    64  61  90 CALM      29.88R FOG
YORK           SUNNY     65  61  87 CALM      29.88S
$$

PAZ038>040-043-044-047-048-054-055-060>062-067>071-211500-
EASTERN PENNSYLVANIA

CITY           SKY/WX    TMP DP  RH WIND       PRES   REMARKS
SCRANTON       SUNNY     71  58  63 VRB3      29.86F
MOUNT POCONO   SUNNY     67  56  67 SW7       29.91F
ALLENTOWN      CLOUDY    63  59  87 CALM      29.90S FOG
QUAKERTOWN*    CLOUDY    64  59  82 CALM      29.90F
READING        CLOUDY    64  61  90 CALM      29.88F
LANCASTER      CLOUDY    62  61  96 SE3       29.89S FOG
COATESVILLE    CLOUDY    63  63 100 SE3       29.90F
POTTSTOWN      CLOUDY    65  61  87 NE3       29.90F
BLUE BELL      CLOUDY    68  64  88 CALM      29.87F
DOYLESTOWN     PTSUNNY   66  62  87 CALM      29.88F
WILLOW GROVE   NOT AVBL
NORTH PHILA    CLOUDY    69  63  81 N6        29.89F
PHILADELPHIA   CLOUDY    69  64  84 N7        29.87F
$$


USA.gov is the U.S. government's official web portal to all federal, state and local government web resources and services.